Weather History for KGEV - January, 2008

Change the Weather History Date:

Thursday, January 17, 2008

  Actual Average Record
Temperature  
Mean Temperature 28 °F -  
Max Temperature 33 °F - - ()
Min Temperature 24 °F - - ()
Degree Days  
Heating Degree Days 36    
Moisture  
Dew Point 25 °F    
Average Humidity 84    
Maximum Humidity 93    
Minimum Humidity 41    
Precipitation  
Precipitation 0.31 in - - ()
Sea Level Pressure  
Sea Level Pressure 30.02 in    
Wind  
Wind Speed 2 mph (SSE)    
Max Wind Speed 6 mph    
Max Gust Speed -    
Visibility 2 miles    
Events Fog , Snow    
T = Trace of Precipitation, MM = Missing Value Source: NWS Daily Summary

Daily Weather History Graph

Daily Weather History Graph

Search for Another Location

Airport or City:

Trip Planner

Search our weather history database for the weather conditions in past years. The results will help you decide how hot, cold, wet, or windy it might be!

Date:

Astronomy

Jan. 17, 2008 Rise Set
Actual Time 7:36 AM EST 5:35 PM EST
Civil Twilight 7:08 AM EST 6:03 PM EST
Nautical Twilight 6:36 AM EST 6:35 PM EST
Astronomical Twilight 6:05 AM EST 7:06 PM EST
Moon 12:40 PM EST (1/17) 2:37 AM EST (1/17)
Length of Visible Light 10h 55m
Length of Day
9h 59m
Waxing Gibbous, 71% of the Moon is Illuminated
Jan 17
Waxing Gibbous
Jan 22
Full
Jan 30
Last Quarter
Feb 6
New
Feb 13
First Quarter

Hourly Weather History & Observations

Time (EST) Temp. Windchill Dew Point Humidity Pressure Visibility Wind Dir Wind Speed Gust Speed Precip Events Conditions
12:01 AM 33.8 °F 29.6 °F 12.2 °F 41% 30.18 in 10.0 mi SSE 4.6 mph - N/A   Overcast
12:21 AM 30.2 °F 26.7 °F 12.2 °F 47% 30.17 in 10.0 mi South 3.5 mph - N/A   Overcast
12:42 AM 30.2 °F - 14.0 °F 51% 30.16 in 10.0 mi Calm Calm - N/A Snow Light Snow
1:03 AM 28.4 °F 22.2 °F 17.6 °F 64% 30.16 in 3.0 mi South 5.8 mph - N/A Snow Light Snow
1:21 AM 28.4 °F 24.6 °F 19.4 °F 69% 30.16 in 2.5 mi SSE 3.5 mph - N/A Snow Light Snow
1:41 AM 26.6 °F 22.6 °F 21.2 °F 80% 30.15 in 1.5 mi SE 3.5 mph - N/A Snow Light Snow
2:01 AM 26.6 °F - 21.2 °F 80% 30.15 in 1.2 mi Calm Calm - 0.01 in Snow Light Snow
2:21 AM 24.8 °F - 21.2 °F 86% 30.13 in 0.8 mi Calm Calm - 0.02 in Snow Snow
2:41 AM 24.8 °F - 21.2 °F 86% 30.12 in 1.0 mi Calm Calm - 0.03 in Snow Snow
3:02 AM 24.8 °F - 21.2 °F 86% 30.11 in 1.5 mi Calm Calm - N/A Snow Light Snow
3:21 AM 24.8 °F - 21.2 °F 86% 30.10 in 2.0 mi Calm Calm - N/A Snow Light Snow
3:41 AM 24.8 °F - 21.2 °F 86% 30.10 in 1.5 mi Calm Calm - N/A Snow Light Snow
4:01 AM 24.8 °F - 21.2 °F 86% 30.09 in 1.0 mi Calm Calm - N/A Snow Snow
4:21 AM 24.8 °F 20.5 °F 21.2 °F 86% 30.08 in 1.8 mi East 3.5 mph - 0.01 in Snow Light Snow
4:41 AM 24.8 °F 20.5 °F 21.2 °F 86% 30.07 in 1.5 mi East 3.5 mph - 0.01 in Snow Light Snow
5:01 AM 24.8 °F 19.1 °F 21.2 °F 86% 30.05 in 1.0 mi East 4.6 mph - N/A Snow Snow
5:21 AM 24.8 °F 19.1 °F 21.2 °F 86% 30.05 in 0.5 mi ESE 4.6 mph - 0.03 in Snow Heavy Snow
5:41 AM 24.8 °F - 23.0 °F 93% 30.05 in 1.5 mi Calm Calm - 0.04 in Snow Light Snow
6:01 AM 26.6 °F - 23.0 °F 86% 30.04 in 1.0 mi Calm Calm - N/A Snow Snow
6:21 AM 26.6 °F - 23.0 °F 86% 30.04 in 1.5 mi Calm Calm - 0.01 in Snow Light Snow
6:42 AM 26.6 °F - 23.0 °F 86% 30.03 in 1.8 mi Calm Calm - 0.02 in Snow Light Snow
7:01 AM 24.8 °F - 21.2 °F 86% 30.03 in 1.5 mi Calm Calm - 0.01 in Snow Light Snow
7:21 AM 24.8 °F - 21.2 °F 86% 30.03 in 1.5 mi Calm Calm - 0.02 in Snow Light Snow
7:43 AM 26.6 °F 21.2 °F 23.0 °F 86% 30.03 in 1.0 mi SW 4.6 mph - 0.03 in Snow Light Snow
8:02 AM 26.6 °F 22.6 °F 23.0 °F 86% 30.03 in 0.2 mi SW 3.5 mph - 0.01 in Snow Snow
8:21 AM 26.6 °F 22.6 °F 24.8 °F 93% 30.03 in 0.2 mi SW 3.5 mph - 0.05 in Snow Heavy Snow
8:41 AM 26.6 °F 21.2 °F 24.8 °F 93% 30.03 in 0.5 mi WSW 4.6 mph - 0.08 in Snow Light Snow
9:01 AM 28.4 °F - 24.8 °F 86% 30.03 in 0.5 mi Calm Calm - N/A Snow Snow
9:23 AM 28.4 °F - 24.8 °F 86% 30.04 in 0.8 mi Calm Calm - 0.04 in Snow Light Snow
9:41 AM 28.4 °F - 26.6 °F 93% 30.03 in 0.5 mi Calm Calm - 0.06 in Snow Snow
10:01 AM 28.4 °F - 26.6 °F 93% 30.03 in 0.8 mi Calm Calm - 0.01 in Snow Light Snow
10:21 AM 30.2 °F - 26.6 °F 86% 30.04 in 1.0 mi Calm Calm - 0.04 in Snow Light Snow
10:41 AM 30.2 °F - 26.6 °F 86% 30.04 in 1.2 mi Calm Calm - 0.04 in Snow Light Snow
11:02 AM 30.2 °F - 26.6 °F 86% 30.04 in 1.0 mi Calm Calm - N/A   Overcast
11:21 AM 33.8 °F - 30.2 °F 87% 30.03 in 1.0 mi Calm Calm - N/A   Overcast
11:41 AM 33.8 °F - 30.2 °F 87% 30.02 in 0.8 mi Calm Calm - N/A   Overcast
12:01 PM 33.8 °F - 30.2 °F 87% 30.00 in 0.8 mi Calm Calm - N/A   Overcast
12:21 PM 33.8 °F - 30.2 °F 87% 29.99 in 1.2 mi Calm Calm - N/A   Overcast
12:41 PM 33.8 °F - 30.2 °F 87% 29.98 in 1.2 mi Calm Calm - N/A   Overcast
1:01 PM 33.8 °F - 30.2 °F 87% 29.97 in 1.5 mi Calm Calm - N/A   Overcast
1:22 PM 33.8 °F - 30.2 °F 87% 29.95 in 2.0 mi Calm Calm - N/A   Overcast
1:41 PM 33.8 °F - 30.2 °F 87% 29.94 in 2.5 mi Calm Calm - N/A   Overcast
2:01 PM 33.8 °F - 30.2 °F 87% 29.94 in 2.5 mi Calm Calm - N/A   Overcast
2:21 PM 33.8 °F - 30.2 °F 87% 29.93 in 3.0 mi Calm Calm - N/A   Overcast
2:41 PM 33.8 °F - 30.2 °F 87% 29.92 in 1.8 mi Calm Calm - N/A   Overcast
3:01 PM 33.8 °F - 30.2 °F 87% 29.91 in 1.8 mi Calm Calm - N/A   Overcast
3:21 PM 33.8 °F - 30.2 °F 87% 29.91 in 1.8 mi Calm Calm - N/A   Overcast
3:41 PM 33.8 °F - 30.2 °F 87% 29.91 in 0.8 mi Calm Calm - N/A   Overcast
4:02 PM 33.8 °F - 30.2 °F 87% 29.89 in 0.5 mi Calm Calm - N/A Fog Fog
4:21 PM 33.8 °F - 30.2 °F 87% 29.89 in 0.8 mi Calm Calm - N/A   Overcast
4:41 PM 33.8 °F - 30.2 °F 87% 29.89 in 0.2 mi Calm Calm - N/A Fog Fog
5:01 PM 33.8 °F - 30.2 °F 87% 29.89 in 0.2 mi Calm Calm - N/A Fog Fog
5:21 PM 33.8 °F - 30.2 °F 87% 29.90 in 0.2 mi Calm Calm - N/A Fog Fog
5:41 PM 33.8 °F - 30.2 °F 87% 29.90 in 0.5 mi Calm Calm - N/A Fog Fog
6:01 PM 33.8 °F - 30.2 °F 87% 29.90 in 0.8 mi Calm Calm - N/A   Overcast
6:21 PM 33.8 °F - 30.2 °F 87% 29.91 in 1.2 mi Calm Calm - N/A   Overcast
6:41 PM 33.8 °F - 30.2 °F 87% 29.91 in 4.0 mi Calm Calm - N/A   Overcast
7:01 PM 33.8 °F - 30.2 °F 87% 29.91 in 0.5 mi Calm Calm - N/A Fog Fog
7:21 PM 33.8 °F - 30.2 °F 87% 29.92 in 0.5 mi Calm Calm - N/A Fog Fog
7:42 PM 33.8 °F - 30.2 °F 87% 29.92 in 0.2 mi Calm Calm - N/A Fog Fog
8:01 PM 33.8 °F - 30.2 °F 87% 29.92 in 0.5 mi Calm Calm - N/A Fog Fog
8:22 PM 33.8 °F - 30.2 °F 87% 29.92 in 0.5 mi Calm Calm - N/A Fog Fog
8:41 PM 37.4 °F 32.1 °F 35.6 °F 93% 29.92 in 10.0 mi West 6.9 mph 17.3 mph N/A   Overcast
9:01 PM 37.4 °F 27.8 °F 35.6 °F 93% 29.91 in 10.0 mi West 17.3 mph 20.7 mph N/A   Overcast
9:21 PM 39.2 °F 29.6 °F 35.6 °F 87% 29.90 in 10.0 mi WNW 19.6 mph 31.1 mph N/A   Overcast
9:41 PM 39.2 °F 29.3 °F 35.6 °F 87% 29.90 in 10.0 mi West 20.7 mph 33.4 mph N/A   Overcast
10:01 PM 39.2 °F 29.0 °F 35.6 °F 87% 29.89 in 10.0 mi West 21.9 mph 33.4 mph N/A   Overcast
10:21 PM 39.2 °F 28.7 °F 33.8 °F 81% 29.89 in 10.0 mi West 23.0 mph 35.7 mph N/A   Mostly Cloudy
10:41 PM 39.2 °F 27.4 °F 33.8 °F 81% 29.90 in 10.0 mi West 29.9 mph 36.8 mph N/A   Overcast
11:01 PM 39.2 °F 28.0 °F 33.8 °F 81% 29.90 in 10.0 mi West 26.5 mph 36.8 mph N/A   Overcast
11:21 PM 39.2 °F 28.3 °F 33.8 °F 81% 29.90 in 10.0 mi West 25.3 mph 34.5 mph N/A   Overcast
11:41 PM 39.2 °F 27.4 °F 33.8 °F 81% 29.90 in 10.0 mi West 29.9 mph 40.3 mph N/A   Mostly Cloudy